"Pseudo-MPEC" for ST26G93

Created 2026 Jul 26 18:35:19 UT using Find_Orb

Click here for an explanation of pseudo-MPECs

 
 Astrometry: 
     ST26G93* C2026 07 23.41639121 13 37.668+23 01 52.80   ~7NHK 19.85GVNEOCPU68
     ST26G93  C2026 07 23.41973221 13 51.994+23 00 47.80   ~7NHK 19.85GVNEOCPU68
     ST26G93  C2026 07 23.43222821 14 45.941+22 56 46.08   ~7NHZ 19.29GVNEOCPU74
     ST26G93  C2026 07 23.43480021 14 57.055+22 55 57.52   ~7NHZ 19.29GVNEOCPU74

Station data:
(U68) JPL SynTrack Robotic Telescope, Auberry  (N37.070387 W119.412990)
   US/California.  Observers N. Saini, C. Zhai, R. Trahan, M. Zhan, M. Shao.
   0.28-m f/2.2 Schmidt + CCD.
(U74) JPL SynTrack Robotic Telescope 2, Auberry  (N37.070341 W119.412800)
   US/California.  Observers N. Saini, C. Zhai, R. Trahan, M. Zhan, M. Shao.
   0.36-m f/2.2 Schmidt.

Orbital elements:  ST26G93
   Perihelion 2026 Jul 21.145202 +/- 26.6 TT =  3:29:05.4 (JD 2461242.645202)
Epoch 2026 Jul 23.0 TT = JDT 2461244.5   Earth MOID: 0.0123   Ma: 0.0787
M   0.509082963 +/- 20              (J2000 ecliptic)             AutoNEOCP
n   0.274468117 +/- 0.267           Peri.  171.441860 +/- 60
a   2.344992439 +/- 1.52            Node   126.374538 +/- 54
e   0.56271958 +/- 0.251            Incl.    4.722877 +/- 9
P   3.59097                H 27.30  G  0.15   U 11.9  SR
q 1.025419266 +/- 0.0854    Q 3.664565612 +/- 6.52
From 4 observations 2026 July 23 (26.5 min); mean residual 0".53
Residuals in arcseconds: 
260723 U68  .63+  .41+    260723 U74  .14-  .70-    
260723 U68  .75-  .38-    260723 U74  .26+  .67+    

Ephemerides (geocentric):
Date (UTC) HH   RA             Dec           delta  r     elong  mag " sig PA
---- --------  ------------   ------------  ------ ------ -----  --- --------
2026 07 26 19  23 52 47.395   +06 35 53.39  .02288 1.0279 122.2 21.2  46d  71
2026 07 26 20  23 53 49.331   +06 27 45.87  .02303 1.0280 122.1 21.2  46d  71
2026 07 26 21  23 54 50.418   +06 19 44.21  .02318 1.0280 122.0 21.2  46d  71
2026 07 26 22  23 55 50.672   +06 11 48.34  .02333 1.0280 121.8 21.3  46d  71
2026 07 26 23  23 56 50.107   +06 03 58.19  .02349 1.0281 121.7 21.3  46d  71
2026 07 27 00  23 57 48.736   +05 56 13.68  .02364 1.0281 121.6 21.3  46d  71
2026 07 27 01  23 58 46.575   +05 48 34.74  .02379 1.0281 121.5 21.3  46d  71
2026 07 27 02  23 59 43.636   +05 41 01.30  .02395 1.0282 121.4 21.3  46d  71
2026 07 27 03  00 00 39.934   +05 33 33.29  .02410 1.0282 121.3 21.4  47d  71
2026 07 27 04  00 01 35.481   +05 26 10.64  .02426 1.0283 121.1 21.4  47d  71
2026 07 27 05  00 02 30.291   +05 18 53.27  .02441 1.0283 121.0 21.4  47d  71
2026 07 27 06  00 03 24.376   +05 11 41.12  .02457 1.0283 120.9 21.4  47d  71
2026 07 27 07  00 04 17.748   +05 04 34.12  .02473 1.0284 120.8 21.4  47d  71
2026 07 27 08  00 05 10.421   +04 57 32.19  .02489 1.0284 120.7 21.4  47d  71
2026 07 27 09  00 06 02.406   +04 50 35.27  .02504 1.0285 120.6 21.5  47d  71
2026 07 27 10  00 06 53.714   +04 43 43.29  .02520 1.0285 120.5 21.5  47d  71
2026 07 27 11  00 07 44.357   +04 36 56.18  .02536 1.0285 120.4 21.5  47d  71
2026 07 27 12  00 08 34.347   +04 30 13.88  .02552 1.0286 120.3 21.5  47d  71
2026 07 27 13  00 09 23.695   +04 23 36.32  .02568 1.0286 120.2 21.5  47d  71
2026 07 27 14  00 10 12.412   +04 17 03.42  .02584 1.0287 120.1 21.5  47d  71
2026 07 27 15  00 11 00.508   +04 10 35.14  .02600 1.0287 120.0 21.6  47d  71
2026 07 27 16  00 11 47.993   +04 04 11.39  .02616 1.0288 119.9 21.6  47d  72
2026 07 27 17  00 12 34.879   +03 57 52.13  .02632 1.0288 119.8 21.6  47d  72
2026 07 27 18  00 13 21.175   +03 51 37.27  .02648 1.0288 119.7 21.6  47d  72
2026 07 27 19  00 14 06.891   +03 45 26.77  .02664 1.0289 119.6 21.6  47d  72
2026 07 27 20  00 14 52.037   +03 39 20.57  .02681 1.0289 119.6 21.6  47d  72
2026 07 27 21  00 15 36.622   +03 33 18.59  .02697 1.0290 119.5 21.6  47d  72
2026 07 27 22  00 16 20.655   +03 27 20.78  .02713 1.0290 119.4 21.7  47d  72
2026 07 27 23  00 17 04.147   +03 21 27.08  .02730 1.0291 119.3 21.7  47d  72
2026 07 28 00  00 17 47.104   +03 15 37.43  .02746 1.0291 119.2 21.7  47d  72
2026 07 28 01  00 18 29.538   +03 09 51.78  .02762 1.0291 119.1 21.7  47d  72
2026 07 28 02  00 19 11.455   +03 04 10.06  .02779 1.0292 119.1 21.7  47d  72
2026 07 28 03  00 19 52.865   +02 58 32.22  .02795 1.0292 119.0 21.7  47d  72
2026 07 28 04  00 20 33.776   +02 52 58.20  .02812 1.0293 118.9 21.8  47d  72
2026 07 28 05  00 21 14.195   +02 47 27.96  .02828 1.0293 118.8 21.8  47d  72
2026 07 28 06  00 21 54.132   +02 42 01.43  .02845 1.0294 118.7 21.8  47d  72
2026 07 28 07  00 22 33.593   +02 36 38.56  .02862 1.0294 118.7 21.8  47d  72
2026 07 28 08  00 23 12.586   +02 31 19.29  .02878 1.0295 118.6 21.8  47d  72
2026 07 28 09  00 23 51.119   +02 26 03.59  .02895 1.0295 118.5 21.8  47d  72
2026 07 28 10  00 24 29.200   +02 20 51.39  .02911 1.0296 118.4 21.8  47d  72
2026 07 28 11  00 25 06.835   +02 15 42.64  .02928 1.0296 118.4 21.9  47d  72
2026 07 28 12  00 25 44.031   +02 10 37.30  .02945 1.0297 118.3 21.9  47d  72
2026 07 28 13  00 26 20.796   +02 05 35.32  .02962 1.0297 118.2 21.9  47d  72
2026 07 28 14  00 26 57.136   +02 00 36.65  .02978 1.0298 118.2 21.9  47d  72
2026 07 28 15  00 27 33.058   +01 55 41.23  .02995 1.0298 118.1 21.9  47d  72
2026 07 28 16  00 28 08.569   +01 50 49.03  .03012 1.0298 118.0 21.9  47d  72
2026 07 28 17  00 28 43.674   +01 46 00.00  .03029 1.0299 118.0 21.9  47d  72
2026 07 28 18  00 29 18.381   +01 41 14.09  .03046 1.0299 117.9 22.0  47d  72